Weather Service Report


082 
ASUS44 KLZK 250105
RWRLZK

WEATHER ROUNDUP FOR ARKANSAS
NATIONAL WEATHER SERVICE LITTLE ROCK AR
800 PM CDT MON APR 24 2017

NOTE: "FAIR" INDICATES FEW OR NO CLOUDS BELOW 12,000 FEET WITH NO
SIGNIFICANT WEATHER AND/OR OBSTRUCTIONS TO VISIBILITY.

ARZ001-003-010-029-250200-
NORTHWEST ARKANSAS
  
CITY           SKY/WX    TMP DP  RH WIND       PRES   REMARKS
FAYETTEVILLE   CLEAR     67  42  40 SE6       29.66F                  
FORT SMITH     CLEAR     72  39  30 S5        29.67S                  
HARRISON       CLEAR     66  32  28 S8        29.71R                  
BENTONVILLE    CLEAR     66  41  39 S8        29.67F                  
ROGERS         CLEAR     67  42  40 SE7       29.67F                  
SILOAM SPGS    CLEAR     66  39  37 S7        29.65F                  
HIGHFILL       CLOUDY    63  45  51 S7        29.65F                  
SPRINGDALE     CLEAR     68  41  37 S8        29.69F                  
$$

ARZ004-005-016-250200-
NORTH CENTRAL ARKANSAS
  
CITY           SKY/WX    TMP DP  RH WIND       PRES   REMARKS
BATESVILLE     CLEAR    N/A N/A N/A SE6       29.73S                  
FLIPPIN        CLEAR     70  34  26 SE5       29.68R                  
MTN HOME       CLEAR     66  39  37 S5        29.70R                  
$$

ARZ040-041-250200-
WEST CENTRAL ARKANSAS
  
CITY           SKY/WX    TMP DP  RH WIND       PRES   REMARKS
MENA           CLOUDY    68  45  42 SE3       29.72F                  
MOUNT IDA      CLEAR     70  42  36 CALM      29.70F                  
$$

ARZ009-017-025-026-028-250200-
NORTHEAST ARKANSAS
  
CITY           SKY/WX    TMP DP  RH WIND       PRES   REMARKS
CORNING        FAIR      66  59  77 CALM      29.74S                  
JONESBORO      CLEAR     67  55  65 SE5       29.74S                  
NEWPORT        CLEAR     65  53  65 SE8       29.74F                  
WALNUT RIDGE   CLEAR     68  50  52 S5        29.73F                  
BLYTHEVILLE    CLEAR     68  54  60 SW3       29.75S                  
$$

ARZ022-023-033-042-044-250200-
CENTRAL ARKANSAS
  
CITY           SKY/WX    TMP DP  RH WIND       PRES   REMARKS
LITTLE ROCK    PTCLDY    66  47  50 SE8       29.73F                  
N LITTLE ROCK    N/A     68  46  45 SE6       29.73F                  
JACKSONVILLE   PTCLDY    66  49  53 SE6       29.72F                  
CONWAY           N/A     68  45  42 SE8       29.70F                  
SEARCY         CLOUDY    66  49  54 CALM      29.76S                  
HOT SPRINGS    CLOUDY    71  42  35 CALM      29.72F                  
RUSSELLVILLE   CLEAR     66  44  45 CALM      29.70S                  
$$

ARZ036-250200-
EAST ARKANSAS
  
CITY           SKY/WX    TMP DP  RH WIND       PRES   REMARKS
WEST MEMPHIS   CLEAR     63  59  87 CALM      29.74R                  
$$

ARZ050-053-066-070-073-250200-
SOUTHWEST ARKANSAS
  
CITY           SKY/WX    TMP DP  RH WIND       PRES   REMARKS
ARKADELPHIA    FAIR      65  58  78 CALM      29.73S                  
CAMDEN         CLEAR     64  46  52 CALM      29.73F                  
TEXARKANA      CLEAR     68  44  42 S7        29.73S                  
EL DORADO        N/A    N/A N/A N/A MISG      29.75S                  
DE QUEEN       CLEAR     70  50  49 CALM      29.70S                  
$$

ARZ056-057-069-250200-
SOUTHEAST ARKANSAS
  
CITY           SKY/WX    TMP DP  RH WIND       PRES   REMARKS
PINE BLUFF     CLEAR     64  53  67 SE8       29.75F                  
STUTTGART      CLEAR     70  46  43 S6        29.76F                  
MONTICELLO     CLEAR     66  51  58 CALM      29.76R                  

$$


  

Return to Home page


Western Regional Climate Center, wrcc@dri.edu